Theta_e
322 324 325 324 323 320 321 324 322 323 319 323 324 325 323 321 318 319 319 318 319 321 321 323 323 323 324 325 327 328 329 329 330 330 330 328 325 323 321 318 316 314 314 316
322 324 321 320 320 322 322 324 323 322 320 322 324 325 323 320 318 321 321 323 321 319 320 320 321 322 322 322 321 324 324 326 328 329 329 329 328 325 323 323 322 320 318 316
322 321 319 320 322 323 323 324 323 323 318 317 319 322 322 319 318 319 321 323 324 325 323 321 320 320 321 322 322 321 321 322 323 325 328 329 329 328 327 325 323 322 322 321
318 318 320 321 323 321 324 321 322 321 324 326 321 323 320 321 321 319 320 322 323 324 325 326 323 320 320 321 322 322 322 322 321 322 324 325 325 325 322 323 323 323 324 324
319 318 320 322 320 320 321 320 323 323 324 323 320 323 323 319 321 321 321 322 324 326 327 327 327 326 322 321 321 322 322 322 322 323 322 322 324 322 323 322 322 324 323 324
314 311 312 318 319 319 319 322 322 321 324 326 323 324 323 322 320 321 321 323 324 325 327 327 328 328 327 326 326 325 322 323 322 322 323 323 323 323 324 324 324 324 325 325
312 314 313 313 319 320 321 322 325 325 324 328 322 321 324 317 316 320 321 322 324 325 326 327 327 327 327 327 326 325 325 325 323 322 322 323 324 325 325 325 325 326 325 325
308 308 314 313 316 321 321 323 322 326 323 323 316 324 323 318 320 320 321 323 324 324 324 325 325 326 326 326 326 326 325 324 323 322 323 322 323 324 325 326 326 326 325 325
309 308 311 314 315 317 321 322 320 315 302 313 316 317 315 316 314 315 318 318 321 323 324 325 324 324 324 323 325 326 324 322 323 323 323 322 320 322 323 324 326 327 327 327
308 309 312 314 318 318 319 319 323 321 324 322 317 319 320 317 318 316 315 316 320 322 323 323 324 324 321 320 320 320 321 322 322 323 323 323 322 322 322 324 325 326 326 325
306 307 309 315 318 319 319 322 321 321 320 323 322 320 312 316 315 317 318 319 320 320 322 323 324 322 320 319 319 319 319 321 322 322 322 322 319 319 321 322 323 323 322 319
305 308 304 305 309 310 311 309 318 323 323 321 319 320 311 315 315 317 318 319 320 321 322 323 322 318 318 318 319 320 320 322 322 322 321 319 316 317 319 320 319 316 312 312
306 307 300 302 304 307 310 311 309 321 319 323 323 321 310 309 311 314 316 319 320 319 319 319 320 319 318 318 318 319 320 320 319 317 315 315 316 317 315 311 310 310 310 310
307 307 303 303 302 311 311 314 313 313 324 323 322 321 317 310 309 309 313 316 316 317 316 317 318 319 318 317 315 315 315 314 314 313 313 313 311 310 310 310 310 310 310 309
307 309 307 308 308 309 310 313 313 314 317 323 321 320 319 317 313 310 314 315 315 315 315 315 316 316 316 314 314 313 313 312 311 311 310 310 310 310 310 310 310 310 309 309
307 303 308 309 310 311 310 309 310 311 312 312 316 320 319 318 317 315 317 317 314 317 317 315 315 315 313 313 314 313 311 310 310 310 310 310 311 310 310 310 309 309 309 309
301 298 296 302 303 303 305 305 307 309 311 312 312 318 318 318 315 314 315 317 319 319 318 314 315 316 314 314 314 312 311 310 310 310 310 310 310 310 309 309 309 309 308 308
300 295 297 301 296 301 303 304 306 308 311 311 312 313 317 318 318 317 317 317 318 319 319 320 315 315 316 314 313 311 310 310 310 310 310 310 310 309 309 309 308 308 308 307
299 298 292 297 295 298 299 300 308 312 313 311 311 311 313 317 315 316 318 319 318 318 319 319 319 317 315 314 312 310 310 310 310 310 310 310 309 309 309 308 307 307 307 307
298 299 299 294 291 295 299 300 304 305 311 311 311 312 312 313 318 319 319 318 318 319 319 319 319 315 315 315 311 310 310 310 310 310 310 309 309 308 308 307 307 306 306 307
293 300 302 300 300 298 300 300 308 312 314 312 313 313 313 314 317 318 317 318 318 318 318 318 317 315 315 314 311 310 310 310 310 310 309 309 308 308 307 307 307 307 307 307
297 295 299 300 303 303 302 302 302 304 306 308 313 314 314 315 315 316 316 317 317 317 318 318 316 313 314 313 310 310 310 310 310 309 309 308 308 307 307 308 308 307 307 306
298 299 299 301 301 302 303 304 305 305 305 307 310 313 314 314 315 316 316 317 317 317 317 317 316 314 312 312 311 310 310 310 310 309 308 308 307 307 307 307 307 306 306 306
297 298 299 299 300 300 302 304 305 307 307 308 310 312 314 314 315 315 315 316 317 317 317 318 318 316 314 311 310 309 310 310 309 309 308 307 307 307 306 306 306 306 305 305
300 299 299 300 300 301 302 303 305 306 308 310 311 312 313 313 313 314 314 315 316 316 316 316 316 316 316 312 309 308 309 309 309 308 307 307 306 306 306 305 305 305 304 303
285 287 296 303 289 287 292 301 302 298 300 305 310 312 313 312 312 313 315 314 315 315 315 314 315 315 314 309 308 308 309 308 308 307 307 306 306 305 305 305 304 303 302 302
Wind_Speed
13 8 17 26 15 3 7 5 7 4 5 4 9 17 16 15 20 22 24 29 29 31 29 28 26 27 28 28 29 30 30 30 29 30 29 29 28 25 24 23 22 22 22 22
7 17 24 15 9 5 2 5 4 1 3 5 5 17 15 13 16 28 32 31 31 33 33 31 30 30 30 28 29 33 33 32 33 32 31 31 28 28 27 25 24 24 24 24
16 19 15 13 12 14 13 10 4 4 2 2 4 17 15 13 22 29 34 35 37 36 34 34 34 33 32 31 29 30 31 34 33 34 33 32 33 33 31 31 29 28 27 26
12 21 10 17 16 17 18 13 5 5 5 7 8 11 14 8 17 17 29 38 41 41 39 36 37 38 38 36 32 30 30 31 32 34 35 36 35 35 32 31 27 27 27 28
7 7 18 12 25 16 10 6 13 14 7 2 5 4 11 8 14 13 21 37 45 42 39 39 37 36 38 37 37 36 34 34 34 33 34 35 37 34 33 30 29 27 25 25
6 6 2 18 11 17 6 5 4 2 10 13 22 14 18 14 8 12 26 38 41 40 43 39 38 38 39 37 35 36 40 40 39 36 34 34 35 33 34 31 29 27 26 24
22 12 1 2 12 9 9 16 9 8 7 5 15 9 26 5 9 15 22 37 48 43 40 41 43 43 46 43 40 37 37 37 39 38 38 36 35 33 33 30 29 29 26 24
15 10 21 15 12 10 23 15 4 11 5 20 8 13 12 13 28 26 34 42 42 38 37 40 44 42 39 43 45 44 43 38 38 35 35 35 37 36 35 33 31 29 28 27
11 11 3 12 12 18 13 19 27 2 2 2 5 11 9 5 6 12 30 31 36 41 40 35 30 31 35 34 42 46 45 42 39 36 33 34 34 36 35 33 33 32 31 29
4 2 5 8 6 18 24 11 12 10 9 11 5 18 16 12 20 11 13 31 47 46 39 35 34 33 30 28 30 34 41 44 39 36 32 30 28 29 31 33 31 30 28 27
3 4 4 4 10 18 14 14 15 13 14 12 18 17 9 16 15 19 23 38 41 42 50 49 42 33 30 30 31 33 36 39 37 35 31 29 29 29 28 28 27 25 24 24
6 1 6 16 7 4 5 4 21 13 15 18 22 23 1 15 22 27 30 43 39 39 42 41 35 28 25 27 28 30 35 36 32 31 30 28 27 26 24 23 21 21 21 21
9 6 3 10 5 10 12 16 15 24 9 13 18 22 4 6 7 22 24 32 36 35 34 30 35 32 27 29 28 28 31 31 29 28 27 26 25 23 20 19 18 18 17 19
24 4 8 13 12 3 13 18 25 27 18 18 19 27 19 9 10 11 24 30 30 33 29 25 28 30 29 30 28 27 27 27 27 27 26 23 20 18 18 17 17 17 18 19
11 6 5 16 16 13 18 14 16 15 24 17 27 25 33 21 12 9 15 17 20 23 25 25 26 32 33 33 31 28 26 26 27 26 24 21 19 18 18 18 18 18 18 17
2 5 4 16 14 10 14 17 23 25 25 20 26 26 30 24 24 22 33 31 29 33 31 25 26 34 36 35 33 30 30 29 28 27 23 21 20 20 20 20 19 18 18 18
5 3 3 13 10 11 10 19 20 21 28 26 24 25 43 28 18 21 20 29 38 42 46 30 30 38 41 40 37 36 33 32 31 27 24 23 22 22 21 21 21 20 19 18
4 4 1 8 4 7 14 11 16 22 27 24 23 29 35 33 32 26 30 37 44 45 46 49 32 35 48 44 41 37 36 34 31 29 27 25 24 24 23 22 21 19 17 16
10 5 2 6 6 15 22 16 8 6 27 27 26 31 34 39 19 30 40 49 47 44 41 47 48 40 46 47 44 41 38 35 34 31 27 26 26 25 23 22 20 18 17 16
12 15 9 6 5 10 27 26 14 15 23 28 22 33 36 35 14 27 63 44 47 49 44 45 52 36 40 48 47 45 44 41 37 31 30 28 27 26 22 21 20 18 17 17
4 5 15 17 10 9 26 16 3 8 11 21 34 44 44 19 38 73 19 38 48 50 48 49 52 40 41 48 52 51 46 44 36 33 30 29 26 23 21 20 18 17 16 16
10 6 6 7 10 19 35 13 18 22 40 39 31 42 40 38 47 46 45 47 41 40 44 47 45 39 42 46 54 53 50 43 38 35 32 28 25 24 22 19 17 16 16 14
10 16 14 14 13 27 23 19 28 40 40 50 38 49 49 41 48 53 48 53 54 53 45 44 44 38 39 44 55 55 49 44 41 37 31 29 27 25 23 20 18 16 14 11
10 13 14 21 30 35 38 35 40 41 49 54 55 47 50 52 56 50 49 48 50 51 53 51 48 47 45 47 52 54 49 46 42 36 33 30 30 28 24 20 18 15 13 12
11 3 23 27 27 33 43 34 43 49 55 58 53 50 51 50 52 55 48 47 48 48 48 51 53 51 48 49 55 53 51 48 43 36 35 33 30 26 23 20 17 16 13 11
6 5 6 15 10 12 13 21 24 32 36 43 54 56 48 39 46 46 47 47 46 49 51 49 49 54 57 54 57 58 54 48 42 39 37 35 31 28 25 23 22 18 14 13
Wind_Direction
178 207 208 210 207 160 162 175 202 171 154 139 218 253 262 253 247 256 250 245 244 241 243 236 235 233 231 228 228 228 229 231 231 231 230 232 233 234 237 237 238 239 242 243
197 219 219 216 206 238 267 189 180 256 140 196 193 258 255 257 245 249 249 251 252 248 244 244 237 234 234 232 231 231 231 232 233 235 238 241 245 246 247 247 248 249 249 250
211 223 222 213 218 223 234 218 168 169 135 274 36 272 254 255 248 253 255 256 254 252 250 245 240 235 234 234 233 233 234 235 236 237 239 241 246 249 247 246 246 248 252 255
234 251 192 216 224 201 233 212 195 152 166 235 181 274 242 225 239 231 243 248 251 247 246 247 242 240 237 235 233 238 240 239 239 238 240 242 245 249 253 255 257 258 258 260
219 161 209 207 219 207 228 165 206 225 236 275 207 272 274 184 235 244 247 247 250 249 247 247 245 240 239 240 241 243 243 244 243 241 240 244 247 251 254 257 258 258 260 260
228 130 148 226 215 206 148 150 149 152 220 234 228 219 258 234 203 242 249 251 251 248 247 248 246 245 243 242 241 242 241 245 242 240 240 242 246 249 252 254 258 261 262 264
241 230 162 262 225 192 191 211 220 237 228 232 206 199 233 254 204 215 234 246 250 250 251 249 248 247 244 242 241 240 239 239 238 241 242 243 245 247 251 253 256 259 263 267
212 231 202 200 208 204 211 203 198 200 198 229 150 224 234 229 232 237 241 245 252 253 252 252 249 249 250 246 242 241 241 237 234 235 243 247 248 247 249 251 254 259 264 268
191 235 243 181 197 202 205 211 221 18 58 343 179 267 275 206 253 247 242 246 245 253 247 250 250 250 248 247 239 237 236 235 233 236 240 244 246 245 247 252 255 260 265 270
196 314 206 220 189 213 216 194 203 218 207 230 232 239 235 201 218 227 240 245 248 249 243 239 255 248 243 235 232 234 235 233 233 234 236 243 247 248 247 248 254 258 263 266
156 142 225 101 200 216 214 233 215 221 212 235 246 249 196 211 209 219 225 239 245 246 244 251 255 241 242 238 232 233 228 218 223 227 233 239 241 243 243 243 247 251 255 258
195 94 252 240 216 194 241 236 252 210 209 225 230 244 166 215 199 211 218 227 242 250 253 252 252 242 240 228 224 224 214 216 221 227 232 235 237 236 236 238 243 246 248 252
157 211 323 320 250 223 235 248 257 253 217 218 220 247 196 211 202 221 232 239 249 257 260 268 251 245 239 221 214 213 212 217 219 218 219 220 221 224 226 226 231 240 251 259
169 166 189 224 230 341 221 238 250 248 228 221 216 244 219 214 204 214 228 241 249 254 258 264 246 231 224 211 206 205 205 206 209 210 210 207 203 205 213 225 237 248 255 260
173 224 222 255 274 294 268 256 256 274 254 238 227 228 249 238 230 225 248 254 270 267 261 251 246 225 213 207 204 207 208 203 197 194 193 194 203 215 227 235 239 245 251 258
237 262 227 261 261 257 258 287 285 277 256 289 262 267 259 244 239 227 236 253 263 267 267 255 241 225 216 210 209 208 201 195 193 192 196 203 213 220 225 232 239 244 251 255
178 148 99 265 268 277 267 244 254 256 250 238 259 243 257 259 254 242 230 237 245 252 269 263 247 227 218 216 213 208 200 196 197 199 204 209 215 223 231 238 244 247 250 255
182 94 117 267 38 266 245 207 240 255 267 243 234 253 262 258 262 262 245 239 244 246 250 258 254 239 221 217 213 205 200 200 201 204 208 215 222 229 236 242 247 249 249 249
190 152 266 257 241 281 292 261 240 236 266 252 243 242 253 262 287 269 255 247 249 248 249 257 264 257 232 219 211 202 201 203 205 207 213 221 227 234 239 246 245 241 239 241
210 204 199 224 178 237 257 266 247 245 255 251 223 241 246 244 240 255 248 245 246 243 245 259 266 256 237 222 209 203 205 205 206 209 216 222 229 234 235 235 234 234 237 244
141 205 216 239 243 261 259 236 268 232 253 250 229 236 240 223 225 244 260 254 250 248 247 246 247 247 234 217 206 205 206 208 207 212 216 223 227 226 225 225 227 232 239 243
197 180 198 230 236 264 254 272 217 239 244 265 271 260 256 248 254 257 252 248 249 246 239 240 244 243 229 216 208 207 208 206 208 211 216 219 218 217 214 214 218 224 233 236
243 214 229 211 227 242 245 230 239 249 249 259 251 251 260 257 251 249 243 242 243 242 238 238 239 239 230 218 210 210 207 205 209 211 213 212 210 207 208 212 213 217 219 215
250 234 239 254 254 260 264 254 245 248 255 253 256 253 252 251 255 254 250 241 239 241 238 237 241 239 231 219 213 210 207 209 210 211 208 206 203 204 203 204 205 201 199 193
254 199 240 250 255 264 261 268 251 251 252 256 257 249 254 250 253 251 245 247 245 244 243 236 233 236 239 226 211 208 208 209 208 207 205 201 200 201 198 195 192 187 186 184
26 348 269 261 6 314 288 267 276 305 284 269 257 256 251 257 255 257 257 260 261 256 249 237 236 237 233 220 207 204 206 207 207 204 200 199 197 195 193 189 182 178 181 176